Regional Weather Roundup
Issued by NWS Midland/Odessa, TX

Skip options and go directly to product.
Home | Oldest Version | Previous Version | Current Version | All | Graphics & Text | Save Text | Print | Product List | Glossary On

Skip product version selection by date and time.   
065
ASUS44 KMAF 240510
RWRMAF
MIDLAND AREA WEATHER ROUNDUP
NATIONAL WEATHER SERVICE MIDLAND TX
1200 AM CDT SUN MAY 24 2015

...IN SOUTHWEST TEXAS AND SOUTHEAST NEW MEXICO...

CITY           SKY/WX    TMP DP  RH WIND       PRES   REMARKS
ALPINE         MOCLDY    64  50  60 W3        29.99F
ANDREWS        FAIR      57  55  94 S6        29.91F
ARTESIA        CLEAR     61  52  72 S14       29.91R
BIG SPRING     PTCLDY    64  58  83 SE9       29.91S
CARLSBAD       CLEAR     60  53  77 S8        29.89R
DRYDEN           N/A     66  62  87 NW8       29.87F
FORT STOCKTON  PTCLDY    63  56  78 S8        29.88S
GUAD PASS      CLEAR     65  14  14 W13       30.01R
HOBBS          LGT RAIN  54  54 100 S6        29.92F
MARFA          MOCLDY    57  54  88 NW5       29.99R
MIDLAND AIRPK  PTCLDY    64  56  78 SE8       29.90S
MIDLAND INTL   PTCLDY    62  57  83 SE9       29.89F
ODESSA           N/A    N/A N/A N/A MISG      29.90F
PECOS          MOCLDY    61  57  85 E9        29.85S
PRESIDIO       FAIR      70  53  53 NE5       29.84S
SEMINOLE       PTCLDY    55  51  86 S7        29.92S
SNYDER         CLOUDY    61  59  93 SE15      29.90S
WINK           PTCLDY    63  55  75 SE10      29.86R
$$
...OTHER STATIONS IN TEXAS...

CITY           SKY/WX    TMP DP  RH WIND       PRES   REMARKS
ABILENE        CLOUDY    67  61  81 CALM      29.93F
AMARILLO       CLOUDY    57  57 100 SE17      29.92R FOG
AUSTIN         TSTM      64  64 100 S7          N/A  FOG
BROWNSVILLE    CLOUDY    81  76  84 SE16G22   29.94R
CORPUS CHRISTI CLOUDY    80  75  84 SE14      29.97R
DALLAS FTW     LGT RAIN  68  68 100 S13       29.94R
DEL RIO        LGT RAIN  68  65  90 E21G38    29.76F
EL PASO        CLEAR     72  19  13 NW13      29.93R
HOUSTON INT    MOCLDY    77  73  87 S10       30.00S
LUBBOCK        CLOUDY    60  56  86 SE15      29.88R
SAN ANGELO     CLOUDY    66  60  81 SE10      29.88F
SAN ANTONIO    TSTM      67  65  93 E14       29.96S
WACO           RAIN      73  71  93 NE8       29.86F
WICHITA FALLS  NOT AVBL
$$
...OTHER LOCATIONS IN NEW MEXICO...

CITY           SKY/WX    TMP DP  RH WIND       PRES   REMARKS
ALAMAGORDO     CLEAR     57  19  23 SE3       29.94R
ALBUQUERQUE    PTCLDY    62  26  25 N12       29.98R
CANNON AFB     CLEAR     56  51  85 S8        29.91R
CLOVIS         PTCLDY    55  48  76 S12       29.91R
HOLLOMAN AFB   CLEAR     64  24  22 SW8       29.92R
ROSWELL        CLEAR     61  28  28 SE13      29.89R
RUIDOSO        CLEAR     54  16  22 SW15      30.05R
SANTA FE       PTCLDY    49  28  44 NW6       29.98R
TRUTH OR CONSE CLEAR     63  22  20 W7        29.96R
TUCUMCARI      PTCLDY    57  43  59 CALM      29.85R
$$

USA.gov is the U.S. government's official web portal to all federal, state and local government web resources and services.